This demonstration page uses our WeatherBlox Daily Observations layout. Learn more.

Left ArrowRight Arrow

Hourly Observations for March 20, 2023

Temp ( °F °C ) Dew Point ( °F °C ) Humidity (%) Winds ( mph kmh ) Pressure ( in mb ) Visibility ( mi km ) Precip ( " mm )
12:53 am 00:53 Clear 52 11.1 49 9.4 89 89 SSW 9 15 29.73 1007 10 16 0.00 0.00
1:03 am 01:03 Mostly Clear 52 11.1 50 10 93 93 S 16 26 29.75 1007 10 16 0.00 0.00
1:53 am 01:53 Clear 52 11.1 49 9.4 89 89 SSW 13 20 29.75 1007 10 16 0.00 0.00
2:53 am 02:53 Clear 52 11.1 48 8.9 86 86 S 14 22 29.77 1008 10 16 0.00 0.00
3:53 am 03:53 Clear 51 10.6 48 8.9 89 89 S 9 15 29.78 1009 10 16 0.00 0.00
4:53 am 04:53 Clear 50 10 45 7.2 83 83 SSW 8 13 29.79 1009 10 16 0.00 0.00
5:53 am 05:53 Clear 47 8.3 44 6.7 90 90 WSW 6 9 29.82 1010 10 16 0.00 0.00
6:53 am 06:53 Clear 45 7.2 41 5 86 86 Calm 29.84 1011 10 16 0.00 0.00
7:00 am 07:00 Mostly Clear 45 7.2 41 5 86 86 E 5 7 29.86 1011 10 16 0.00 0.00
7:53 am 07:53 Mostly Sunny 43 6.1 40 4.4 89 89 N 3 6 29.86 1011 10 16 0.00 0.00
8:53 am 08:53 Sunny 50 10 41 5 71 71 W 3 6 29.89 1012 10 16 0.00 0.00
9:33 am 09:33 Mostly Sunny 51 10.6 35 1.7 54 54 Calm 29.91 1013 10 16 0.00 0.00
9:53 am 09:53 Mostly Sunny 52 11.1 36 2.2 54 54 Calm 29.89 1012 10 16 0.00 0.00
10:53 am 10:53 Partly Cloudy 53 11.7 36 2.2 52 52 Calm 29.89 1012 10 16 0.00 0.00
11:53 am 11:53 Mostly Cloudy 54 12.2 35 1.7 49 49 Calm 29.89 1012 10 16 0.00 0.00
12:53 pm 12:53 Partly Cloudy 55 12.8 41 5 59 59 S 3 6 29.87 1012 10 16 0.00 0.00
1:53 pm 13:53 Cloudy 57 13.9 42 5.6 57 57 S 9 15 29.85 1011 10 16 0.00 0.00
2:53 pm 14:53 Partly Cloudy 58 14.4 42 5.6 55 55 SSE 17 28 29.83 1010 10 16 0.00 0.00
3:53 pm 15:53 Mostly Cloudy 59 15 42 5.6 53 53 S 14 22 29.81 1010 10 16 0.00 0.00
4:53 pm 16:53 Mostly Sunny 58 14.4 41 5 53 53 SSE 8 13 29.79 1009 10 16 0.00 0.00
5:53 pm 17:53 Sunny 57 13.9 41 5 55 55 S 10 17 29.78 1008 10 16 0.00 0.00
6:53 pm 18:53 Sunny 57 13.9 41 5 55 55 SSE 8 13 29.77 1008 10 16 0.00 0.00
7:53 pm 19:53 Clear 53 11.7 41 5 63 63 Calm 29.76 1008 10 16 0.00 0.00
8:53 pm 20:53 Clear 51 10.6 42 5.6 71 71 NNE 3 6 29.75 1008 10 16 0.00 0.00
9:53 pm 21:53 Mostly Clear 50 10 41 5 71 71 Calm 29.75 1007 10 16 0.00 0.00
10:53 pm 22:53 Mostly Cloudy 49 9.4 41 5 74 74 NE 3 6 29.74 1007 10 16 0.00 0.00
11:53 pm 23:53 Cloudy 48 8.9 42 5.6 80 80 NNE 6 9 29.74 1007 10 16 0.00 0.00

Powered by AerisWeather